STARLINK-34024 (64031 NORAD) Tracking and Keplerian Element Data

This shows tracking and keplerian element data for the satellite.

Feedback or suggestion? Click here.




ElementValue
Catalog64031
NameSTARLINK-34024
Epoch Orbit3395
Epoch Day353.99630028
Epoch Year2025
RAAN315.44
Inclination70.0015
Eccentricity0.0002783
Argument of Perigee287.5138
Mean Anonmoly72.5717
Mean Motion14.98338355
Decay Rate2.557E-05
L11 64031U 25102K 25353.99630028 .00002557 00000+0 22198-3 0 9992
L22 64031 70.0015 315.4400 0002783 287.5138 72.5717 14.98338355 33958



Live tracking and technical data element details for STARLINK-34024 (NORAD 64031). STARLINK-34024 can be tracked NOW for your location showing map with azimuth and elevation plus other details from your city location.







IsCatalogInMostPopularTable: catalog: 64031, numindb: 12
Update: records affected: 1



GetName: 64031 STARLINK-34024

Hit Count: updated at: Mon, 20 Apr 2026 10:04:25 GMT